Regional Weather Roundup
Issued by NWS

Home | Current Version | Previous Version | Text Only | Print | Product List | Glossary On
Versions: 1 2 3 4 5 6 7 8 9 10 11 12 13 14 15 16 17 18 19 20 21 22 23 24 25 26 27 28 29 30 31 32 33 34 35 36 37 38 39 40 41 42 43 44 45 46 47 48 49 50
708
ASUS44 KBMX 101610
RWRAL

ALABAMA REGIONAL WEATHER ROUNDUP
NATIONAL WEATHER SERVICE BIRMINGHAM AL
1000 AM CST SAT DEC 10 2016

NOTE: "FAIR" INDICATES FEW OR NO CLOUDS BELOW 12,000 FEET
WITH NO SIGNIFICANT WEATHER AND/OR OBSTRUCTIONS TO VISIBILITY.

THE REMARK "TC" DENOTES TEMPERATURE IN DEGREES CELSIUS.

ALZ001>011-014-016>018-020-101700-
NORTH ALABAMA

CITY           SKY/WX    TMP DP  RH WIND       PRES   REMARKS
MUSCLE SHOALS  SUNNY     34  22  61 E6        30.61F WCI  29
HUNTSVILLE     MOSUNNY   37  20  50 NE6       30.59F WCI  32
DECATUR        SUNNY     34  21  59 NE8       30.61S WCI  27
HALEYVILLE     FAIR      36  20  52 NE6       30.59F WCI  31
GADSDEN        SUNNY     36  19  50 NE5       30.60S WCI  32
$$

ALZ012-013-022-023-030>036-040>044-101700-
WEST CENTRAL ALABAMA

CITY           SKY/WX    TMP DP  RH WIND       PRES   REMARKS
TUSCALOOSA     SUNNY     40  20  44 NE10      30.60F WCI  33
$$

ALZ015-024>027-033>036-040>044-101700-
CENTRAL ALABAMA

CITY           SKY/WX    TMP DP  RH WIND       PRES   REMARKS
BIRMINGHAM     SUNNY     39  19  44 NE3       30.60S
MONTGOMERY     SUNNY     43  19  38 N6        30.58R
SHELBY CO ARPT SUNNY     40  19  43 VRB5      30.57S
MAXWELL AFB    SUNNY     41  20  42 NE7       30.56S
GREENVILLE     FAIR      44  17  33 VRB7      30.53S
$$

ALZ019-021-028-029-037-038-045>048-101700-
EAST CENTRAL ALABAMA

CITY           SKY/WX    TMP DP  RH WIND       PRES   REMARKS
ANNISTON       SUNNY     37  19  48 E3        30.58S
ALEXANDER CITY SUNNY     41  20  43 N3        30.56R
AUBURN         SUNNY     40  19  43 N6        30.55R
$$

ALZ051>064-101700-
SOUTHWEST ALABAMA

CITY           SKY/WX    TMP DP  RH WIND       PRES   REMARKS
MOBILE         SUNNY     43  22  43 NE9       30.55S
BROOKLEY FIELD SUNNY     43  25  49 N9        30.57S
EVERGREEN      SUNNY     43  20  39 VRB5      30.56S
$$

ALZ049-050-065>069-101700-
SOUTHEAST ALABAMA

CITY           SKY/WX    TMP DP  RH WIND       PRES   REMARKS
DOTHAN         SUNNY     45  26  47 NE7       30.55F
OZARK          SUNNY     43  20  40 NE5       30.52F
TROY           SUNNY     41  20  43 NE6       30.56R
EUFAULA        FAIR      44  23  43 NE6       30.53F
$$




USA.gov is the U.S. government's official web portal to all federal, state and local government web resources and services.